Content
SEND FEEDBACK

Daily
Averages
Monthly
Summary
United States of America

CALHOUN, GEORGIA


Home > North America > United States > Georgia
Elevation: 655 feet     Latitude: 34 29N     Longitude: 084 58W

WEATHER
 
SELECT A DAY
Number of Records: 210,796;   Date Range: 1/1/95 - 8/30/14
 
SHARE

PRINT THIS DATA

[ ← Previous Day ]
WEATHER ALMANAC - APRIL 16, 2014
[ Next Day → ]
[ °C ]   °F
Weather ElementAverageHighLow
Temperature50.4 °F63 °F (4:53 pm)33.1 °F (5:53 am)
Dewpoint28 °F30.9 °F (7:53 pm)24.1 °F (6:53 am)
Humidity44.5 %72 % (5:53 am)28 % (4:53 pm)
Barometer30.24 in30.30 in (10:53 am)30.18 in (4:53 pm)
Wind Speed6.9 mph11.5 mph (8:53 am)
Weather ElementAverage
Visibility10 mi
Wind DirectionE (90.5 °)

Weather ElementTotal
Precipitation---
Heating Degree Days17 (Base 65)
Averaged from 20 records on April 16, 2014
WEATHER CONDITIONS BREAKOUT
WIND DIRECTION BREAKOUT
WEATHER BY HOUR - APRIL 16, 2014
[ °C ]   °F
Local TimeTemperatureDewpointHumidityBarometerVisibilityWind DirectionWind SpeedGust SpeedPrecipitationEventsConditions
4:53 AM36.0 °F25.0 °F64 %30.20 in10.0 miNorth (360°)9.2 mphClear
5:53 AM33.1 °F25.0 °F72 %30.22 in10.0 miNNE (20°)5.8 mphClear
6:53 AM34.0 °F24.1 °F67 %30.25 in10.0 miNNE (30°)3.5 mphClear
7:53 AM36.0 °F25.0 °F64 %30.26 in10.0 miNNE (30°)9.2 mphClear
8:53 AM39.0 °F26.1 °F60 %30.28 in10.0 miNE (50°)11.5 mphClear
9:53 AM43.0 °F27.0 °F53 %30.28 in10.0 miNE (50°)8.1 mphClear
10:53 AM45.0 °F27.0 °F49 %30.30 in10.0 miVariable4.6 mphClear
11:53 AM51.1 °F30.0 °F44 %30.30 in10.0 miEast (100°)5.8 mphClear
12:53 PM54.0 °F28.9 °F38 %30.28 in10.0 miVariable5.8 mphClear
1:53 PM57.2 °F26.6 °F31 %30.26 in10.0 miSSE (150°)9.2 mphClear
2:53 PM60.1 °F28.0 °F30 %30.23 in10.0 miNorthClear
3:53 PM61.0 °F28.0 °F29 %30.20 in10.0 miNorthClear
4:53 PM63.0 °F28.9 °F28 %30.18 in10.0 miSSE (150°)10.4 mphClear
5:53 PM63.0 °F28.9 °F28 %30.19 in10.0 miESE (120°)8.1 mphClear
6:53 PM62.1 °F28.9 °F29 %30.19 in10.0 miSSE (150°)8.1 mphClear
7:53 PM59.0 °F30.9 °F35 %30.20 in10.0 miSE (130°)5.8 mphClear
8:53 PM55.0 °F30.0 °F38 %30.22 in10.0 miESE (120°)5.8 mphClear
9:53 PM53.1 °F30.9 °F43 %30.24 in10.0 miESE (120°)4.6 mphClear
10:53 PM52.0 °F30.0 °F43 %30.26 in10.0 miESE (120°)4.6 mphClear
11:53 PM51.1 °F30.0 °F44 %30.29 in10.0 miESE (110°)3.5 mphClear
Hourly data recorded from KRMG, located miles away from Calhoun, Georgia







STORIES FROM OUR PARTNERS